Time,TemperatureF,DewpointF,PressureIn,WindDirection,WindDirectionDegrees,WindSpeedMPH,WindSpeedGustMPH,Humidity,HourlyPrecipIn,Conditions,Clouds,dailyrainin,SoftwareType,DateUTC
2013-11-14 00:14:00,26.9,18.0,30.09,NNW,336,2.0,4.0,70,0.00,,,0.00,weatherlink.com 1.10,2013-11-14 05:14:00,
2013-11-14 00:29:00,28.0,19.0,30.08,NNW,333,2.0,6.0,68,0.00,,,0.00,weatherlink.com 1.10,2013-11-14 05:29:00,
2013-11-14 00:44:00,28.2,18.0,30.07,WSW,256,0.0,4.0,67,0.00,,,0.00,weatherlink.com 1.10,2013-11-14 05:44:00,
2013-11-14 00:59:00,28.2,19.0,30.07,NNW,340,1.0,5.0,68,0.00,,,0.00,weatherlink.com 1.10,2013-11-14 05:59:00,
2013-11-14 01:15:00,28.2,19.0,30.07,NNW,330,0.0,6.0,68,0.00,,,0.00,weatherlink.com 1.10,2013-11-14 06:15:00,
2013-11-14 01:30:00,28.2,19.0,30.07,WNW,284,2.0,3.0,68,0.00,,,0.00,weatherlink.com 1.10,2013-11-14 06:30:00,
2013-11-14 01:45:00,28.4,19.0,30.06,SW,230,1.0,4.0,68,0.00,,,0.00,weatherlink.com 1.10,2013-11-14 06:45:00,
2013-11-14 02:00:00,28.8,19.0,30.06,SW,234,0.0,4.0,68,0.00,,,0.00,weatherlink.com 1.10,2013-11-14 07:00:00,
2013-11-14 02:15:00,29.1,20.0,30.05,WNW,292,1.0,4.0,68,0.00,,,0.00,weatherlink.com 1.10,2013-11-14 07:15:00,
2013-11-14 02:30:00,29.1,20.0,30.04,WNW,290,0.0,5.0,68,0.00,,,0.00,weatherlink.com 1.10,2013-11-14 07:30:00,
2013-11-14 02:45:00,29.1,20.0,30.04,NNW,346,1.0,6.0,68,0.00,,,0.00,weatherlink.com 1.10,2013-11-14 07:45:00,
2013-11-14 03:00:00,29.3,20.0,30.04,NW,308,1.0,6.0,68,0.00,,,0.00,weatherlink.com 1.10,2013-11-14 08:00:00,
2013-11-14 03:15:00,29.2,20.0,30.04,SW,228,1.0,3.0,68,0.00,,,0.00,weatherlink.com 1.10,2013-11-14 08:15:00,
2013-11-14 03:30:00,29.1,20.0,30.04,SSW,200,0.0,4.0,68,0.00,,,0.00,weatherlink.com 1.10,2013-11-14 08:30:00,
2013-11-14 03:45:00,29.0,20.0,30.04,WSW,249,0.0,4.0,68,0.00,,,0.00,weatherlink.com 1.10,2013-11-14 08:45:00,
2013-11-14 04:00:00,29.0,19.0,30.04,WNW,284,0.0,3.0,67,0.00,,,0.00,weatherlink.com 1.10,2013-11-14 09:00:00,
2013-11-14 04:15:00,29.1,19.0,30.03,West,261,1.0,5.0,67,0.00,,,0.00,weatherlink.com 1.10,2013-11-14 09:15:00,
2013-11-14 04:30:00,29.2,19.0,30.03,South,188,0.0,5.0,67,0.00,,,0.00,weatherlink.com 1.10,2013-11-14 09:30:00,
2013-11-14 04:46:00,29.4,20.0,30.03,SW,214,0.0,2.0,67,0.00,,,0.00,weatherlink.com 1.10,2013-11-14 09:46:00,
2013-11-14 05:01:00,29.5,19.0,30.03,SW,214,0.0,2.0,66,0.00,,,0.00,weatherlink.com 1.10,2013-11-14 10:01:00,
2013-11-14 05:16:00,29.6,19.0,30.03,SW,227,2.0,2.0,65,0.00,,,0.00,weatherlink.com 1.10,2013-11-14 10:16:00,
2013-11-14 05:31:00,29.8,19.0,30.03,SW,227,0.0,1.0,64,0.00,,,0.00,weatherlink.com 1.10,2013-11-14 10:31:00,
2013-11-14 05:46:00,29.8,19.0,30.03,SW,227,0.0,1.0,64,0.00,,,0.00,weatherlink.com 1.10,2013-11-14 10:46:00,
2013-11-14 06:00:00,30.2,19.0,30.03,SW,227,1.0,2.0,63,0.00,,,0.00,weatherlink.com 1.10,2013-11-14 11:00:00,
2013-11-14 06:15:00,30.1,18.0,30.03,WSW,258,0.0,3.0,62,0.00,,,0.00,weatherlink.com 1.10,2013-11-14 11:15:00,
2013-11-14 06:30:00,30.2,18.0,30.03,WNW,292,1.0,2.0,61,0.00,,,0.00,weatherlink.com 1.10,2013-11-14 11:30:00,
2013-11-14 06:45:00,30.2,18.0,30.04,WNW,293,0.0,2.0,60,0.00,,,0.00,weatherlink.com 1.10,2013-11-14 11:45:00,
2013-11-14 07:00:00,29.5,18.0,30.04,NW,325,2.0,3.0,62,0.00,,,0.00,weatherlink.com 1.10,2013-11-14 12:00:00,
2013-11-14 07:15:00,30.1,18.0,30.04,NNW,329,2.0,2.0,61,0.00,,,0.00,weatherlink.com 1.10,2013-11-14 12:15:00,
2013-11-14 07:30:00,29.9,19.0,30.04,NNW,328,0.0,2.0,63,0.00,,,0.00,weatherlink.com 1.10,2013-11-14 12:30:00,
2013-11-14 07:45:00,30.9,19.0,30.04,NNW,327,1.0,3.0,62,0.00,,,0.00,weatherlink.com 1.10,2013-11-14 12:45:00,
2013-11-14 08:01:00,32.8,21.0,30.04,NW,325,0.0,2.0,61,0.00,,,0.00,weatherlink.com 1.10,2013-11-14 13:01:00,
2013-11-14 08:16:00,34.4,20.0,30.04,WNW,283,2.0,3.0,57,0.00,,,0.00,weatherlink.com 1.10,2013-11-14 13:16:00,
2013-11-14 08:31:00,35.8,20.0,30.04,WNW,285,1.0,3.0,54,0.00,,,0.00,weatherlink.com 1.10,2013-11-14 13:31:00,
2013-11-14 08:46:00,36.4,22.0,30.04,South,178,0.0,3.0,56,0.00,,,0.00,weatherlink.com 1.10,2013-11-14 13:46:00,
2013-11-14 09:01:00,36.0,22.0,30.04,South,178,0.0,1.0,58,0.00,,,0.00,weatherlink.com 1.10,2013-11-14 14:01:00,
2013-11-14 09:16:00,36.7,23.0,30.04,South,178,0.0,2.0,57,0.00,,,0.00,weatherlink.com 1.10,2013-11-14 14:16:00,
2013-11-14 09:31:00,37.7,24.0,30.04,NW,325,2.0,4.0,58,0.00,,,0.00,weatherlink.com 1.10,2013-11-14 14:31:00,
2013-11-14 09:46:00,38.9,25.0,30.04,NW,308,3.0,5.0,59,0.00,,,0.00,weatherlink.com 1.10,2013-11-14 14:46:00,
2013-11-14 10:01:00,40.9,26.0,30.04,North,355,7.0,10.0,56,0.00,,,0.00,weatherlink.com 1.10,2013-11-14 15:01:00,
2013-11-14 10:16:00,42.0,27.0,30.04,North,5,4.0,10.0,55,0.00,,,0.00,weatherlink.com 1.10,2013-11-14 15:16:00,
2013-11-14 10:31:00,41.5,28.0,30.04,North,355,0.0,13.0,58,0.00,,,0.00,weatherlink.com 1.10,2013-11-14 15:31:00,
2013-11-14 10:46:00,43.5,28.0,30.04,NW,307,6.0,17.0,55,0.00,,,0.00,weatherlink.com 1.10,2013-11-14 15:46:00,
2013-11-14 11:01:00,43.5,28.0,30.03,ENE,58,8.0,12.0,55,0.00,,,0.00,weatherlink.com 1.10,2013-11-14 16:01:00,
2013-11-14 11:17:00,44.1,28.0,30.04,WNW,290,0.0,14.0,54,0.00,,,0.00,weatherlink.com 1.10,2013-11-14 16:17:00,
2013-11-14 11:32:00,44.5,29.0,30.03,WNW,295,7.0,11.0,54,0.00,,,0.00,weatherlink.com 1.10,2013-11-14 16:32:00,
2013-11-14 11:47:00,44.7,29.0,30.03,NNE,27,4.0,12.0,54,0.00,,,0.00,weatherlink.com 1.10,2013-11-14 16:47:00,
2013-11-14 12:02:00,44.7,29.0,30.02,NW,311,3.0,16.0,55,0.00,,,0.00,weatherlink.com 1.10,2013-11-14 17:02:00,
2013-11-14 12:17:00,44.5,29.0,30.02,NNW,334,7.0,14.0,55,0.00,,,0.00,weatherlink.com 1.10,2013-11-14 17:17:00,
2013-11-14 12:32:00,43.5,29.0,30.03,WNW,296,6.0,14.0,56,0.00,,,0.00,weatherlink.com 1.10,2013-11-14 17:32:00,
2013-11-14 12:47:00,44.5,29.0,30.02,NW,312,4.0,19.0,55,0.00,,,0.00,weatherlink.com 1.10,2013-11-14 17:47:00,
2013-11-14 13:02:00,45.1,29.0,30.02,WNW,294,8.0,10.0,53,0.00,,,0.00,weatherlink.com 1.10,2013-11-14 18:02:00,
2013-11-14 13:17:00,45.2,29.0,30.02,NW,323,5.0,14.0,54,0.00,,,0.00,weatherlink.com 1.10,2013-11-14 18:17:00,
2013-11-14 13:32:00,45.4,29.0,30.02,NNW,327,5.0,14.0,54,0.00,,,0.00,weatherlink.com 1.10,2013-11-14 18:32:00,
2013-11-14 13:47:00,46.2,30.0,30.02,NW,317,3.0,11.0,53,0.00,,,0.00,weatherlink.com 1.10,2013-11-14 18:47:00,
2013-11-14 14:02:00,46.2,29.0,30.02,NW,314,4.0,12.0,52,0.00,,,0.00,weatherlink.com 1.10,2013-11-14 19:02:00,
2013-11-14 14:17:00,46.0,29.0,30.02,NW,311,4.0,14.0,52,0.00,,,0.00,weatherlink.com 1.10,2013-11-14 19:17:00,
2013-11-14 14:32:00,46.0,29.0,30.03,NNW,345,1.0,9.0,52,0.00,,,0.00,weatherlink.com 1.10,2013-11-14 19:32:00,
2013-11-14 14:47:00,46.1,29.0,30.03,NNW,333,5.0,10.0,52,0.00,,,0.00,weatherlink.com 1.10,2013-11-14 19:47:00,
2013-11-14 15:03:00,45.7,29.0,30.03,NW,310,6.0,9.0,53,0.00,,,0.00,weatherlink.com 1.10,2013-11-14 20:03:00,
2013-11-14 15:18:00,45.0,29.0,30.03,North,350,3.0,7.0,54,0.00,,,0.00,weatherlink.com 1.10,2013-11-14 20:18:00,
2013-11-14 15:33:00,44.2,29.0,30.03,WSW,258,2.0,11.0,55,0.00,,,0.00,weatherlink.com 1.10,2013-11-14 20:33:00,
2013-11-14 15:48:00,43.7,29.0,30.03,NNE,22,1.0,6.0,56,0.00,,,0.00,weatherlink.com 1.10,2013-11-14 20:48:00,
2013-11-14 16:03:00,43.0,29.0,30.03,NNE,22,0.0,2.0,57,0.00,,,0.00,weatherlink.com 1.10,2013-11-14 21:03:00,
2013-11-14 16:18:00,42.3,28.0,30.04,NNE,22,1.0,2.0,58,0.00,,,0.00,weatherlink.com 1.10,2013-11-14 21:18:00,
2013-11-14 16:33:00,41.7,28.0,30.04,NNE,22,1.0,2.0,59,0.00,,,0.00,weatherlink.com 1.10,2013-11-14 21:33:00,
2013-11-14 16:48:00,41.2,28.0,30.04,NNE,22,1.0,2.0,60,0.00,,,0.00,weatherlink.com 1.10,2013-11-14 21:48:00,
2013-11-14 17:03:00,40.2,28.0,30.05,NNE,22,0.0,2.0,62,0.00,,,0.00,weatherlink.com 1.10,2013-11-14 22:03:00,
2013-11-14 17:18:00,40.7,28.0,30.05,NNE,22,0.0,1.0,61,0.00,,,0.00,weatherlink.com 1.10,2013-11-14 22:18:00,
2013-11-14 17:33:00,40.9,28.0,30.05,NNE,22,0.0,2.0,60,0.00,,,0.00,weatherlink.com 1.10,2013-11-14 22:33:00,
2013-11-14 17:48:00,40.3,28.0,30.06,NNE,22,1.0,2.0,61,0.00,,,0.00,weatherlink.com 1.10,2013-11-14 22:48:00,
2013-11-14 18:04:00,39.2,27.0,30.05,NNE,22,2.0,3.0,63,0.00,,,0.00,weatherlink.com 1.10,2013-11-14 23:04:00,
2013-11-14 18:19:00,38.3,27.0,30.05,NNE,22,2.0,3.0,63,0.00,,,0.00,weatherlink.com 1.10,2013-11-14 23:19:00,
2013-11-14 18:34:00,38.6,27.0,30.05,NNE,22,0.0,3.0,63,0.00,,,0.00,weatherlink.com 1.10,2013-11-14 23:34:00,
2013-11-14 18:49:00,38.6,26.0,30.05,NNE,22,0.0,1.0,62,0.00,,,0.00,weatherlink.com 1.10,2013-11-14 23:49:00,
2013-11-14 19:04:00,38.2,26.0,30.06,NNE,22,0.0,3.0,63,0.00,,,0.00,weatherlink.com 1.10,2013-11-15 00:04:00,
2013-11-14 19:19:00,38.2,26.0,30.06,NNE,22,0.0,2.0,63,0.00,,,0.00,weatherlink.com 1.10,2013-11-15 00:19:00,
2013-11-14 19:34:00,38.2,26.0,30.06,NNE,22,0.0,1.0,63,0.00,,,0.00,weatherlink.com 1.10,2013-11-15 00:34:00,
2013-11-14 19:49:00,38.2,26.0,30.06,NNE,22,1.0,2.0,62,0.00,,,0.00,weatherlink.com 1.10,2013-11-15 00:49:00,
2013-11-14 20:03:00,37.9,26.0,30.07,NNE,22,0.0,2.0,63,0.00,,,0.00,weatherlink.com 1.10,2013-11-15 01:03:00,
2013-11-14 20:18:00,37.8,26.0,30.06,WNW,294,1.0,3.0,63,0.00,,,0.00,weatherlink.com 1.10,2013-11-15 01:18:00,
2013-11-14 20:33:00,38.2,26.0,30.06,WNW,294,0.0,2.0,62,0.00,,,0.00,weatherlink.com 1.10,2013-11-15 01:33:00,
2013-11-14 20:48:00,37.7,26.0,30.07,WNW,293,0.0,1.0,63,0.00,,,0.00,weatherlink.com 1.10,2013-11-15 01:48:00,
2013-11-14 21:04:00,36.8,26.0,30.07,WNW,300,2.0,4.0,65,0.00,,,0.00,weatherlink.com 1.10,2013-11-15 02:04:00,
2013-11-14 21:19:00,36.1,25.0,30.07,WNW,300,1.0,2.0,65,0.00,,,0.00,weatherlink.com 1.10,2013-11-15 02:19:00,
2013-11-14 21:34:00,35.6,25.0,30.07,WNW,301,1.0,3.0,66,0.00,,,0.00,weatherlink.com 1.10,2013-11-15 02:34:00,
2013-11-14 21:49:00,35.9,25.0,30.07,NW,305,2.0,3.0,65,0.00,,,0.00,weatherlink.com 1.10,2013-11-15 02:49:00,
2013-11-14 22:04:00,36.7,25.0,30.07,NW,323,0.0,5.0,63,0.00,,,0.00,weatherlink.com 1.10,2013-11-15 03:04:00,
2013-11-14 22:19:00,36.0,25.0,30.07,NW,325,1.0,4.0,64,0.00,,,0.00,weatherlink.com 1.10,2013-11-15 03:19:00,
2013-11-14 22:34:00,36.7,24.0,30.07,NW,325,1.0,3.0,61,0.00,,,0.00,weatherlink.com 1.10,2013-11-15 03:34:00,
2013-11-14 22:49:00,37.1,24.0,30.07,NW,325,2.0,2.0,59,0.00,,,0.00,weatherlink.com 1.10,2013-11-15 03:49:00,
2013-11-14 23:04:00,37.5,24.0,30.07,NW,325,1.0,2.0,58,0.00,,,0.00,weatherlink.com 1.10,2013-11-15 04:04:00,
2013-11-14 23:19:00,37.0,24.0,30.07,NW,325,0.0,2.0,59,0.00,,,0.00,weatherlink.com 1.10,2013-11-15 04:19:00,
2013-11-14 23:34:00,35.8,23.0,30.08,NW,325,0.0,1.0,61,0.00,,,0.00,weatherlink.com 1.10,2013-11-15 04:34:00,
2013-11-14 23:49:00,35.0,24.0,30.08,NW,325,0.0,1.0,64,0.00,,,0.00,weatherlink.com 1.10,2013-11-15 04:49:00,